Regional Weather Roundup
Issued by NWS

Home | Current Version | Previous Version | Graphics & Text | Print | Product List | Glossary On
Versions: 1 2 3 4 5 6 7 8 9 10 11 12 13 14 15 16 17 18 19 20 21 22 23 24 25 26 27 28
000
ASUS45 KSLC 240310
RWRUT

UTAH REGIONAL WEATHER ROUNDUP
NATIONAL WEATHER SERVICE SALT LAKE CITY UT
800 PM MST FRI FEB 23 2018

UTZ001>011-023>025-240400-

NORTHERN UTAH

CITY           SKY/WX    TMP DP  RH WIND       PRES   REMARKS
BRIGHAM CITY   CLEAR     20  10  65 N5        30.16R WCI  14
HILL AFB       FOG       17  15  92 CALM      30.13R VSB 1/4
LOGAN          PTCLDY    18   9  68 NE10      30.15R WCI   6
OGDEN          CLEAR     19  11  70 S3        30.14R
SALT LAKE CITY MOCLDY    24  19  81 SW3       30.16R
WENDOVER       CLEAR     28   6  39 NW15      30.17R WCI  16
HEBER CITY       N/A     19  12  73 SW8       30.04R WCI   9
WEST JORDAN    CLOUDY    20  20 100 CALM      30.15R

$$

UTZ011>015-024>027-240400-

CENTRAL/NORTHEAST UTAH

CITY           SKY/WX    TMP DP  RH WIND       PRES   REMARKS
PROVO AIRPORT  CLOUDY    23  17  78 NW12      30.16R WCI  12
MOAB/CANYONLAN MOCLDY    29  22  75 SW7       29.98R WCI  22
DELTA          MOCLDY    19  14  79 CALM      30.16R
PRICE          CLEAR     20   9  62 NW10      29.98R WCI   9
VERNAL         CLOUDY    23  19  85 SE5       29.96R WCI  17

$$

UTZ013>016-019>022-027-240400-

SOUTHERN UTAH

CITY           SKY/WX    TMP DP  RH WIND       PRES   REMARKS
BRYCE CANYON   MOCLDY    12   8  84 W10       29.98R WCI  -1
CEDAR CITY     CLOUDY    20  13  74 MISG      30.08R
MILFORD        PTCLDY    17  12  80 N9        30.13R WCI   6
ST GEORGE      CLOUDY    35  32  88 S5        30.15R WCI  31
HANKSVILLE     PTCLDY    32   7  34 NW12      30.03R WCI  23
BLANDING         N/A     23  22  98 CALM      30.04R

$$

REGIONAL REPORTS     COLORADO/ARIZONA

CITY           SKY/WX    TMP DP  RH WIND       PRES   REMARKS
CRAIG, CO      CLOUDY    21  14  74 W9        29.92R WCI  11
GRAND JUNCTION CLOUDY    30  25  81 N8        29.96R WCI  22
RIFLE, CO      CLOUDY    24  22  91 SW3       29.94R
MONTROSE, CO   CLOUDY    26  21  81 SE8       29.96S WCI  18
CORTEZ, CO     CLOUDY    24  22  91 NE7       29.93F WCI  16
COLORADO CITY    N/A     30  23  74 NW8       30.09R WCI  23
PAGE, AZ       PTCLDY    34  25  69 NW3       30.02R
GRAND CANYON   PTCLDY    17  15  92 CALM      29.99R
KINGMAN, AZ    PTCLDY    34  23  64 NE6       30.12R WCI  29
FLAGSTAFF, AZ  LGT SNOW  20  17  88 W5        29.97R FOG     WCI  13

$$

REGIONAL REPORTS    NEVADA/IDAHO/WYOMING

CITY           SKY/WX    TMP DP  RH WIND       PRES   REMARKS
LAS VEGAS, NV  PTCLDY    45  15  30 NW14      30.14R
ELY, NY        MOCLDY    17   7  64 W9        30.13R WCI   6
ELKO, NV       CLEAR     16   8  71 W6        30.21R WCI   7
POCATELLO, ID  PTCLDY    19  10  68 SW17      30.14S WCI   4
BURLEY, ID     CLEAR     15   6  67 SW10      30.17R WCI   2
EVANSTON, WY   CLEAR      8   5  87 W13       29.97R WCI  -8
ROCK SPRINGS,  LGT SNOW  14   9  80 SW17      29.92S WCI  -3

$$




USA.gov is the U.S. government's official web portal to all federal, state and local government web resources and services.